Location: �bnet
(46.9957°N, 8.4908°E)
Time: 02:32:34
(UTC+00:00)

SeaSat 1 - Pass Details

Date: 11 May 2021
Orbit: 745 x 746 km, 108.0° (Epoch: 23 June)

Event Time Altitude Azimuth Distance (km) Brightness Sun altitude
Rises 23:01:57 0° 35° (NE) 3,200 6.5 -24.7°
Reaches altitude 10° 23:04:24 10° 44° (NE) 2,272 5.4 -24.7°
Enters shadow 23:08:31 35° 99° (E) 1,184 3.3 -24.8°
